TimeCST,TemperatureF,Dew PointF,Humidity,Sea Level PressureIn,VisibilityMPH,Wind Direction,Wind SpeedMPH,Gust SpeedMPH,PrecipitationIn,Events,Conditions,WindDirDegrees,DateUTC
12:53 AM,41.0,27.0,57,30.26,10.0,WNW,5.8,-,N/A,,Clear,290,2012-12-21 06:53:00
1:53 AM,37.9,28.0,68,30.27,10.0,West,4.6,-,N/A,,Clear,280,2012-12-21 07:53:00
2:53 AM,37.9,26.1,62,30.28,10.0,WNW,8.1,-,N/A,,Clear,300,2012-12-21 08:53:00
3:53 AM,37.9,23.0,55,30.29,10.0,NW,10.4,-,N/A,,Clear,310,2012-12-21 09:53:00
4:53 AM,37.0,23.0,57,30.30,10.0,WNW,5.8,-,N/A,,Clear,290,2012-12-21 10:53:00
5:53 AM,35.1,23.0,61,30.32,10.0,WNW,8.1,-,N/A,,Clear,300,2012-12-21 11:53:00
6:53 AM,36.0,21.9,57,30.34,10.0,WNW,11.5,-,N/A,,Clear,300,2012-12-21 12:53:00
7:53 AM,39.0,21.0,49,30.37,10.0,NW,12.7,-,N/A,,Clear,310,2012-12-21 13:53:00
8:53 AM,43.0,18.0,37,30.39,10.0,NNW,15.0,24.2,N/A,,Clear,330,2012-12-21 14:53:00
9:53 AM,46.0,15.1,29,30.39,10.0,NNW,18.4,-,N/A,,Clear,340,2012-12-21 15:53:00
10:53 AM,48.9,15.1,26,30.37,10.0,NNW,12.7,-,N/A,,Clear,340,2012-12-21 16:53:00
11:53 AM,53.1,17.1,24,30.35,10.0,NW,9.2,18.4,N/A,,Clear,320,2012-12-21 17:53:00
12:53 PM,55.0,15.1,21,30.31,10.0,North,15.0,23.0,N/A,,Clear,350,2012-12-21 18:53:00
1:53 PM,55.9,18.0,23,30.29,10.0,NW,12.7,19.6,N/A,,Clear,320,2012-12-21 19:53:00
2:53 PM,55.0,19.0,24,30.30,10.0,NW,16.1,23.0,N/A,,Clear,310,2012-12-21 20:53:00
3:53 PM,54.0,19.9,26,30.29,10.0,NW,12.7,-,N/A,,Clear,310,2012-12-21 21:53:00
4:53 PM,51.1,23.0,33,30.30,10.0,WNW,9.2,-,N/A,,Clear,300,2012-12-21 22:53:00
5:53 PM,44.1,30.0,58,30.32,10.0,Calm,Calm,-,N/A,,Clear,0,2012-12-21 23:53:00
6:53 PM,39.9,32.0,73,30.34,10.0,WNW,3.5,-,N/A,,Clear,300,2012-12-22 00:53:00
7:53 PM,39.0,32.0,76,30.35,10.0,Calm,Calm,-,N/A,,Clear,0,2012-12-22 01:53:00
8:53 PM,37.0,32.0,82,30.37,10.0,Calm,Calm,-,N/A,,Clear,0,2012-12-22 02:53:00
9:53 PM,34.0,28.9,82,30.38,10.0,Calm,Calm,-,N/A,,Clear,0,2012-12-22 03:53:00
10:53 PM,34.0,28.9,82,30.37,10.0,Calm,Calm,-,N/A,,Clear,0,2012-12-22 04:53:00
11:53 PM,34.0,30.0,85,30.36,10.0,NNW,3.5,-,N/A,,Clear,340,2012-12-22 05:53:00